{"data":{"norad_id":61858,"intl_designator":"2024-202P","name":"STARLINK-32556","alt_names":[],"object_type":"PAYLOAD","status":"ACTIVE","operator":null,"country":"US","launch_date":"2024-11-07","launch_site_code":"AFETR","launch_vehicle":null,"mission":null,"orbit_class":"UNKNOWN","rcs_meters":null,"size_class":null,"mass_kg":null,"dimensions":null,"purposes":["comms"],"wikipedia_slug":null,"has_3d_model":false,"image_url":null,"decayed_at":null,"tle_current":{"epoch":"2026-05-25T02:16:36.748992Z","epoch_age_seconds":70035,"freshness":"FRESH","line1":"1 61858U 24202P   26145.09486978 -.00003023  00000+0 -10042-3 0  9996","line2":"2 61858  43.0011 166.4224 0001321 277.3165  82.7536 15.27568168 87029","mean_motion":15.27568168,"eccentricity":0.0001321,"inclination_deg":43.0011,"raan_deg":166.4224,"arg_perigee_deg":277.3165,"mean_anomaly_deg":82.7536,"bstar":-0.00010042,"rev_number":8702,"period_min":94.267478870377,"perigee_km":482.17815816936,"apogee_km":483.9908928964,"semimajor_km":6861.2215255329,"source":"CELESTRAK","updated_at":"2026-05-25T13:38:19.452351Z"}}}